Location: Bannatyne
(13.0833°N, 59.5333°W)
Time: 22:28:27
(UTC+00:00)

CZ-4 R/B - Pass Details

Date: 18 October 2019
Orbit: 530 x 601 km, 97.8° (Epoch: 11 November)

Event Time Altitude Azimuth Distance (km) Brightness Sun altitude
Rises 22:56:47 0° 182° (S) 2,751 5.0 -19.9°
Reaches altitude 10° 22:58:59 10° 189° (S) 1,867 4.2 -20.5°
Maximum altitude 23:02:48 40° 260° (W) 852 2.8 -21.4°
Drops below altitude 10° 23:06:42 10° 330° (NNW) 1,905 4.3 -22.3°
Sets 23:08:58 0° 338° (NNW) 2,815 5.2 -22.9°
